TimeEST,TemperatureF,Dew PointF,Humidity,Sea Level PressureIn,VisibilityMPH,Wind Direction,Wind SpeedMPH,Gust SpeedMPH,PrecipitationIn,Events,Conditions,WindDirDegrees,DateUTC
12:53 AM,24.1,19.9,84,30.47,10.0,Calm,Calm,-,N/A,,Partly Cloudy,0,2012-11-11 05:53:00
1:53 AM,24.1,19.9,84,30.48,10.0,Calm,Calm,-,N/A,,Scattered Clouds,0,2012-11-11 06:53:00
2:53 AM,24.1,19.9,84,30.48,10.0,Calm,Calm,-,N/A,,Clear,0,2012-11-11 07:53:00
3:53 AM,21.9,19.9,92,30.51,10.0,Calm,Calm,-,N/A,,Clear,0,2012-11-11 08:53:00
4:53 AM,23.0,19.0,85,30.52,10.0,Calm,Calm,-,N/A,,Clear,0,2012-11-11 09:53:00
5:53 AM,21.0,19.0,92,30.53,10.0,Calm,Calm,-,N/A,,Scattered Clouds,0,2012-11-11 10:53:00
6:53 AM,27.0,24.1,89,30.54,10.0,Calm,Calm,-,N/A,,Mostly Cloudy,0,2012-11-11 11:53:00
7:53 AM,28.9,26.1,89,30.55,10.0,Calm,Calm,-,N/A,,Overcast,0,2012-11-11 12:53:00
8:53 AM,30.0,26.1,85,30.53,10.0,Calm,Calm,-,N/A,,Overcast,0,2012-11-11 13:53:00
9:53 AM,33.1,26.1,75,30.51,10.0,Calm,Calm,-,N/A,,Overcast,0,2012-11-11 14:53:00
10:53 AM,35.6,26.6,70,30.48,10.0,Calm,Calm,-,N/A,,Overcast,0,2012-11-11 15:53:00
11:53 AM,39.0,27.0,62,30.47,10.0,Calm,Calm,-,N/A,,Overcast,0,2012-11-11 16:53:00
12:53 PM,39.2,28.4,65,30.44,10.0,North,3.5,-,N/A,,Overcast,360,2012-11-11 17:53:00
1:53 PM,39.0,30.9,73,30.43,10.0,Calm,Calm,-,0.00,,Overcast,0,2012-11-11 18:53:00
2:53 PM,39.0,30.0,70,30.43,10.0,North,4.6,-,N/A,,Mostly Cloudy,360,2012-11-11 19:53:00
3:53 PM,37.9,30.0,73,30.45,10.0,North,5.8,-,N/A,,Mostly Cloudy,10,2012-11-11 20:53:00
4:53 PM,35.1,30.0,82,30.48,10.0,NNW,5.8,-,N/A,,Mostly Cloudy,330,2012-11-11 21:53:00
5:00 PM,35.6,30.2,81,30.46,10.0,North,5.8,-,N/A,,Overcast,350,2012-11-11 22:00:00
5:53 PM,36.0,28.9,76,30.48,10.0,Calm,Calm,-,N/A,,Overcast,0,2012-11-11 22:53:00
6:53 PM,36.0,30.0,79,30.47,10.0,Calm,Calm,-,N/A,,Overcast,0,2012-11-11 23:53:00
7:53 PM,36.0,30.9,82,30.46,10.0,Calm,Calm,-,N/A,,Overcast,0,2012-11-12 00:53:00
8:39 PM,35.6,30.2,81,30.45,10.0,Calm,Calm,-,N/A,,Overcast,0,2012-11-12 01:39:00
8:53 PM,36.0,30.9,82,30.46,10.0,NNW,4.6,-,N/A,,Overcast,330,2012-11-12 01:53:00
9:53 PM,37.0,30.0,76,30.45,10.0,Calm,Calm,-,N/A,,Overcast,0,2012-11-12 02:53:00
10:23 PM,37.4,30.2,75,30.44,10.0,Calm,Calm,-,N/A,,Overcast,0,2012-11-12 03:23:00
10:53 PM,37.0,30.9,79,30.45,10.0,Calm,Calm,-,N/A,,Overcast,0,2012-11-12 03:53:00
11:31 PM,37.4,30.2,75,30.44,10.0,Calm,Calm,-,N/A,,Overcast,0,2012-11-12 04:31:00
11:53 PM,37.9,32.0,79,30.44,10.0,Calm,Calm,-,N/A,,Overcast,0,2012-11-12 04:53:00